Change the Weather History Date:

Saturday, May 25, 2013

  Actual Average Record
Temperature  
Mean Temperature 72 °F -  
Max Temperature 79 °F 80 °F 86 °F (1998)
Min Temperature 65 °F 65 °F 64 °F (2000)
Cooling Degree Days 7    
Growing Degree Days 22 (Base 50)    
Moisture  
Dew Point 66 °F    
Average Humidity 81    
Maximum Humidity 94    
Minimum Humidity 53    
Precipitation  
Precipitation 0.00 in 0.36 in - ()
Sea Level Pressure  
Sea Level Pressure 30.00 in    
Wind  
Wind Speed 4 mph ()    
Max Wind Speed 16 mph    
Max Gust Speed -    
Visibility 6.9 miles    
Events Fog , Rain    
Averages and records for this station are not official NWS values.
T = Trace of Precipitation, MM = Missing Value Source: Averaged Metar Reports

Daily Weather History Graph

Daily Weather History Graph

Search for Another Location

Airport or City:

Trip Planner

Search our weather history database for the weather conditions in past years. The results will help you decide how hot, cold, wet, or windy it might be!

Date:

Astronomy

May. 25, 2013 Rise Set
Actual Time 5:14 AM CST 5:53 PM CST
Civil Twilight 4:51 AM CST 6:15 PM CST
Nautical Twilight 4:25 AM CST 6:42 PM CST
Astronomical Twilight 3:58 AM CST 7:09 PM CST
Moon 6:41 PM CST (5/25) 5:38 AM CST (5/25)
Length of Visible Light 13h 23m
Length of Day
12h 38m
Waxing Gibbous, 99% of the Moon is Illuminated
May 25
Waxing Gibbous
May 31
Last Quarter
Jun 8
New
Jun 16
First Quarter
Jun 23
Full

Hourly Weather History & Observations

Time (CST) Temp. Dew Point Humidity Pressure Visibility Wind Dir Wind Speed Gust Speed Precip Events Conditions
12:00 AM 68 °F 66 °F 93% 29.86 in 7 mi WSW 2.3 mph - -   Mist
12:00 AM 68.0 °F 66.2 °F 94% 30.03 in 6.2 mi WSW 2.3 mph - N/A   Mostly Cloudy
1:00 AM 68.0 °F 66.2 °F 94% 30.02 in 6.2 mi NNW 2.3 mph - N/A   Mostly Cloudy
2:00 AM 68.0 °F 64.4 °F 88% 30.01 in 6.2 mi East 2.3 mph - N/A   Mostly Cloudy
3:00 AM 68 °F 64 °F 82% 29.85 in 12 mi ENE 4.6 mph - -   Overcast
3:00 AM 68.0 °F 64.4 °F 88% 29.99 in - ENE 4.6 mph - N/A   Clear
4:00 AM 66.2 °F 62.6 °F 88% 29.99 in - NNE 3.5 mph - N/A   Clear
5:00 AM 66.2 °F 62.6 °F 88% 30.01 in - ENE 3.5 mph - N/A   Clear
6:00 AM 66 °F 62 °F 83% 29.90 in 12 mi ENE 4.6 mph - -   Mostly Cloudy
6:00 AM 66.2 °F 62.6 °F 88% 30.03 in - ENE 4.6 mph - N/A   Clear
7:00 AM 68.0 °F 62.6 °F 83% 30.05 in - NE 5.8 mph - N/A   Clear
8:00 AM 69.8 °F 64.4 °F 83% 30.06 in - North 4.6 mph - N/A   Clear
9:00 AM 74 °F 64 °F 62% 29.94 in 12 mi East 2.3 mph - -   Mostly Cloudy
9:00 AM 73.4 °F 64.4 °F 73% 30.07 in - East 2.3 mph - N/A   Clear
10:00 AM 77.0 °F 64.4 °F 65% 30.07 in - North 4.6 mph - N/A   Clear
11:00 AM 78.8 °F 64.4 °F 61% 30.07 in 6.2 mi ESE 6.9 mph - N/A   Mostly Cloudy
11:39 AM 77.0 °F 68.0 °F 74% 30.05 in 6.2 mi SW 10.4 mph - N/A   Mostly Cloudy
12:00 PM 77 °F 67 °F 65% 29.90 in 12 mi WSW 12.7 mph - -   Partly Cloudy
12:00 PM 77.0 °F 68.0 °F 74% 30.05 in 6.2 mi WSW 12.7 mph - N/A   Scattered Clouds
1:00 PM 75.2 °F 68.0 °F 78% 30.03 in 6.2 mi WSW 9.2 mph - N/A   Scattered Clouds
2:00 PM 77.0 °F 68.0 °F 74% 30.00 in 6.2 mi WSW 8.1 mph - N/A   Mostly Cloudy
3:00 PM 75 °F 68 °F 72% 29.84 in 12 mi West 5.8 mph - -   Overcast
3:00 PM 75.2 °F 68.0 °F 78% 30.00 in 6.2 mi West 5.8 mph - N/A   Mostly Cloudy
4:00 PM 75.2 °F 68.0 °F 78% 29.99 in 6.2 mi WNW 2.3 mph - N/A Rain Light Rain
5:00 PM 73.4 °F 68.0 °F 83% 29.99 in 6.2 mi WSW 5.8 mph - N/A Fog Patches of Fog
6:00 PM 72 °F 69 °F 87% 29.86 in 4 mi Calm Calm - - Rain Light Rain
6:00 PM 71.6 °F 53.6 °F 53% 30.02 in 3.7 mi Calm Calm - N/A Fog , Rain Rain
7:00 PM 71.6 °F 69.8 °F 94% 30.03 in 3.1 mi SSE 2.3 mph - N/A Rain Light Rain
7:15 PM 71.6 °F 66.2 °F 83% 30.03 in 6.2 mi East 3.5 mph - N/A Fog Patches of Fog
8:00 PM 71.6 °F 68.0 °F 88% 30.04 in 6.2 mi East 2.3 mph - N/A Fog Patches of Fog
9:00 PM - 68 °F % 29.88 in 5 mi NNE 16.1 mph - -  
9:00 PM 69.8 °F 68.0 °F 94% 30.04 in 5.0 mi NW 2.3 mph - N/A Fog Fog
10:00 PM 69.8 °F 68.0 °F 94% 30.07 in 5.0 mi NW 3.5 mph - N/A Fog Fog
11:00 PM 69.8 °F 66.2 °F 88% 30.06 in 5.0 mi WNW 2.3 mph - N/A Fog Fog